Other Public Products
Issued by NWS Grand Forks, ND

Home | Current Version | Previous Version | Graphics & Text | Print | Product List | Glossary On
Versions: 1 2 3 4 5 6 7 8 9 10 11 12 13 14 15 16 17 18 19 20 21 22 23 24 25 26 27 28 29 30 31 32 33 34 35 36 37 38 39 40 41 42 43 44 45 46 47 48 49 50
000
FPUS83 KFGF 170510
OPUFGF
PRAIRIE TO PINES WEATHER ROUNDUP
NATIONAL WEATHER SERVICE EASTERN NORTH DAKOTA/GRAND FORKS ND
1200 AM CDT THU AUG 17 2017

 **SATELLITE DATA USED TO AUGMENT SKY COVER AT AUTOMATED STATIONS**
 *****  WEATHER ACROSS EASTERN NORTH DAKOTA  *****

CITY           SKY/WX    TMP DP  RH WIND       PRES   REMARKS
GRAND FORKS    FAIR      62  62 100 N8        29.83S
GRAND FORKS AF FAIR      57  57 100 N5        29.84S FOG
GRAND CITY NWS NOT AVBL
BUXTON           N/A     63  62  98 NW8         N/A
DEVILS LAKE    FAIR      60  59  96 CALM      29.88R
FARGO          CLOUDY    65  64  97 N14       29.79F
WAHPETON ARPT  CLOUDY    63  61  94 N12       29.77F
$$

 *****  WEATHER ACROSS CENTRAL AND WESTERN NORTH DAKOTA  *****

CITY           SKY/WX    TMP DP  RH WIND       PRES   REMARKS
JAMESTOWN      FAIR      59  57  93 CALM      29.86S
BISMARCK       FAIR      61  56  83 CALM      29.92R
MINOT          FAIR      62  54  74 S3        29.87F
MINOT AFB      FAIR      57  52  85 CALM      29.86S
GARRISON         N/A     59  54  83 CALM      29.89F
WILLISTON      FAIR      73  56  54 SE7       29.86F
DICKINSON      FAIR      61  54  77 SE10      29.91F
HETTINGER      FAIR      61  50  67 SE5       29.96S
$$

 *****  OTHER OBSERVATIONS NORTHEAST NORTH DAKOTA  *****

CITY           SKY/WX    TMP DP  RH WIND       PRES   REMARKS
WALHALLA       FAIR      57  57 100 CALM      29.86S FOG
LANGDON        FAIR      55  55 100 CALM      29.89R
CAVALIER       FAIR      57  57 100 CALM      29.85S FOG
GRAFTON        FOG       59  59 100 N3        29.86S VSB 1/2
CANDO          FAIR      57  57 100 CALM      29.90R
FORT TOTTEN      N/A     60  60  98 CALM      29.95S
ROLLA          MOCLDY    55  54  94 NW8       29.89S
RUGBY          FAIR      57  54  88 CALM      29.87S
 ***** THE ABOVE OBSERVATIONS ARE NON NWS ARE NOT QUALITY
        CONTROLLED AND MAY MIS-REPORT RAIN FOR SNOW...
$$

 *****  OTHER OBSERVATIONS SOUTHEAST NORTH DAKOTA *****

CITY           SKY/WX    TMP DP  RH WIND       PRES   REMARKS
COOPERSTOWN    FAIR      59  59 100 CALM      29.86S
VALLEY CITY      N/A     61  61 100 N6        29.86S
OAKES          NOT AVBL
GWINNER        CLEAR     63  63 100 N9        29.82S
SHEYENNE NWR     N/A     64  64 100 N6        29.95S
BUFFALO          N/A     60  58  92 NW6         N/A
WYNDMERE       NOT AVBL
 ***** THE ABOVE OBSERVATIONS ARE NON NWS ARE NOT QUALITY
       CONTROLLED AND MAY MIS-REPORT RAIN FOR SNOW...
$$

  *****  WEATHER ACROSS NORTHERN MINNESOTA  *****

CITY           SKY/WX    TMP DP  RH WIND       PRES   REMARKS
FLAG ISLAND    CLOUDY    63  57  82 E5        29.85S
WARROAD        CLOUDY    63  59  88 E10       29.85R
ROSEAU         CLOUDY    63  57  82 CALM      29.85R HAZE
HALLOCK        FAIR      59  57  94 NE5       29.85R
THF RVR FALLS  CLOUDY    62  62 100 N10       29.83S FOG
HALSTAD        NOT AVBL
FOSSTON        DRIZZLE   63  61  94 N5        29.81S
BAUDETTE       LGT RAIN  61  61 100 E8        29.83S
WASKISH        LGT RAIN  63  63 100 E3        29.81F
CROOKSTON      CLOUDY    63  63 100 N6        29.82F
$$
  *****  WEATHER ACROSS CENTRAL AND WEST MINNESOTA  *****

CITY           SKY/WX    TMP DP  RH WIND       PRES   REMARKS
BEMIDJI        RAIN      63  62  98 E3        29.80S
PARK RAPIDS    RAIN      65  63  93 NE5       29.77F
WADENA         RAIN      63  63 100 N5        29.75F
DETROIT LAKES  RAIN      64  63  94 CALM      29.79F
MOORHEAD       DRIZZLE   64  63  94 N9        29.80S
FERGUS FALLS   RAIN      66  66 100 N5        29.75F
ELBOW LAKE     LGT RAIN  64  64 100 N7        29.74F
MORRIS MN      LGT RAIN  66  64  94 N14       29.70F
STAPLES        RAIN      63  63 100 N6        29.73F
WHEATON        LGT RAIN  64  63  94 NW12      29.76F
$$
  *****  WEATHER ELSEWHERE ACROSS MINNESOTA  *****

CITY           SKY/WX    TMP DP  RH WIND       PRES   REMARKS
DULUTH         HVY RAIN  60  60 100 E15       29.78F FOG
INTRNTL FALLS  LGT RAIN  61  58  90 E7        29.84F
ELY            LGT RAIN  57  55  94 NE8       29.84F
CLOQUET        RAIN      61  57  88 NE9G16    29.76F
BRAINERD       RAIN      62  61  96 NE12      29.72F FOG
HIBBING        LGT RAIN  58  57  97 E5        29.80F
ALEXANDRIA     RAIN      65  65 100 N14G20    29.72F
SAINT CLOUD    RAIN      67  67 100 NE13G21   29.60F FOG
MINNEAPOLIS    CLOUDY    72  69  90 SE8       29.57F
$$

  *****  WEATHER ACROSS SOUTH DAKOTA  *****

CITY           SKY/WX    TMP DP  RH WIND       PRES   REMARKS
SIOUX FALLS    LGT RAIN  67  67 100 NW13      29.75F
BROOKINGS      LGT RAIN  65  64  97 NW16      29.74F
WATERTOWN      CLOUDY    64  64 100 N13       29.76F
HURON          FAIR      64  63  96 NW12      29.83S
SISSETON         N/A     65  64  97 N16       29.76F
ABERDEEN       FAIR      62  61  96 N9        29.84S
MITCHELL       LGT RAIN  66  64  93 NW10      29.84S
PIERRE         FAIR      59  54  83 NW8       29.90S
MOBRIDGE       FAIR      57  54  89 NW5       29.89S
RAPID CITY     FAIR      62  51  67 S3        30.00S
$$

  *****  SOME WEATHER IN NEARBY STATES *****

CITY           SKY/WX    TMP DP  RH WIND       PRES   REMARKS
GLASGOW MT     FAIR      69  42  37 E12       29.81S
GREAT FALLS MT FAIR      58  26  29 NW5       29.94R
CHEYENNE WY    FAIR      59  45  59 SW8       30.20S
SCOTTSBLUFF NE FAIR      61  51  70 SE3       30.08S
OMAHA NE       FAIR      69  61  75 W14       29.82F
DES MOINES IA  FAIR      71  66  84 W9        29.76R
DAVENPORT IA   MOCLDY    75  70  84 S15G21    29.78F
CHICAGO IL     FAIR      77  73  87 S13       29.81F
EAU CLAIRE WI  RAIN      70  68  93 SE8       29.64R FOG
LA CROSSE WI   MOCLDY    77  73  87 S6        29.64F
$$

  *****  SOME NATIONAL WEATHER *****

CITY           SKY/WX    TMP DP  RH WIND       PRES   REMARKS
LA GUARDIA NY  FAIR      76  66  71 N5        30.01R
RALEIGH NC     MOCLDY    78  73  84 CALM      30.05S
ATLANTA GA     FAIR      81  74  79 W8        30.08F
NEW ORLEANS LA FAIR      80  76  87 SE5       30.06S
OKLAHOMA CITY  CLOUDY    72  70  93 CALM      29.93R
ALBUQUERQUE NM FAIR      76  39  26 S7        30.14R
SALT LAKE CITY FAIR      76  40  27 S7        30.04R
LOS ANGELES CA FAIR      67  62  84 W10       29.96R
BOISE ID       FAIR      71  37  28 SE3       29.97R
SEATTLE WA     MOCLDY    66  56  70 W6        30.10R
$$

*** WEATHER ACROSS MANITOBA...SASKATCHEWAN AND ONTARIO ***
                ***ONTARIO***

CITY           SKY/WX    TMP DP  RH WIND       PRES   REMARKS
GERALDTON      MOCLDY    57  52  82 CALM      29.97F
THUNDER BAY    CLOUDY    61  59  94 E8        29.91F
SIOUX LOOKOUT  CLOUDY    61  59  94 CALM      29.88S
TORONTO        PTCLDY    66  61  82 E3        30.06F
BIG TROUT LK   CLOUDY    64  61  88 S5        29.88F
PICKLE LAKE    NOT AVBL
DRYDEN         CLOUDY    61  54  77 E2        29.89S
KENORA         CLOUDY    61  55  82 SE6       29.88S
$$
                *** MANITOBA***

CITY           SKY/WX    TMP DP  RH WIND       PRES   REMARKS
BRANDON        CLEAR     52  48  87 N3        29.85F
DAUPHIN        CLEAR     54  50  87 W5        29.84F
ISLAND LAKE    NOT AVBL
PILOT MOUND    NOT AVBL
THE PAS        PTCLDY    63  54  72 SW3       29.78F
THOMPSON       PTCLDY    61  59  94 S5        29.73S
WINNIPEG       PTCLDY    63  59  88 SE8       29.86R
LYNN LAKE      PTCLDY    59  55  88 MISG      29.68S
CHURCHILL      CLOUDY    64  57  77 SW6       29.76S
GILLAM         CLEAR     61  57  88 S6        29.77F
$$
                ***SASKATCHEWAN***

CITY           SKY/WX    TMP DP  RH WIND       PRES   REMARKS
ESTEVAN        PTCLDY    59  52  77 SE7       29.86F
KINDERSLEY     MOCLDY    63  46  55 SE12G18   29.84S
LLOYDMINSTER   PTCLDY    55  54  94 W8        29.83S
PRINCE ALBERT  PTCLDY    52  46  82 CALM      29.85R
REGINA         MOCLDY    68  43  40 E10       29.87S
YORKTON        CLEAR     57  50  77 SW3       29.88S



USA.gov is the U.S. government's official web portal to all federal, state and local government web resources and services.